EHI
0 0 0 0 0 0 0 0 0 0 0 0 0 0 0 0 0 0 0 0 0 0 0 0 0 0 0 0 0 0 0 0 0 0 0 0 0 0
0 0 0 0 0 0 0 0 0 0 0 0 0 0 0 0 0 0 0 0 0 0 0 0 0 0 0 0 0 0 0 0 0 0 0 0 0 0
0 0 0 0 0 0 0 0 0 0 0 0 0 0 0 0 0 0 0 0 0 0 0 0 0 0 0 0 0 0 0 0 0 0 0 0 0 0
0 0 0 0 0 0 0 0 0 0 0 0 0 0 0 0 0 0 0 0 0 0 0 0 0 0 0 0 0 0 0 0 0 0 0 0 0 0
0 0 0 0 0 0 0 0 0 0 0 0 0 0 0 0 0 0 0 0 0 0 0 0 0 0 0 0 0 0 0 0 0 0 0 0 0 0
0 0 0 0 0 0 0 0 0 0 0 0 0 0 0 0 0 0 0 0 0 0 0 0 0 0 0 0 0 0 0 0 0 0 0 0 0 0
0 0 0 0 0 0 0 0 0 0 0 0 0 0 0 0 0 0 0 0 0 0 0 0 0 0 0 0 0 0 0 0 0 0 0 0 0 0
0 0 0 0 0 0 0 0 0 0 0 0 0 0 0 0 0 0 0 0 0 0 0 0 0 0 0 0 0 0 0 0 0 0 0 0 0 0
0 0 0 0 0 0 0 0 0 0 0 0 0 0 0 0 0 0 0 0 0 0 0 0 0 0 0 0 0 0 0 0 0 0 0 0 0 0
0 0 0 0 0 0 0 0 0 0 0 0 0 0 0 0 0 0 0 0 0 0 0 0 0 0 0 0 0 0 0 0 0 0 0 0 0 0
0 0 0 0 0 0 0 0 0 0 0 0 0 0 0 0 0 0 0 0 0 0 0 0 0 0 0 0 0 0 0 0 0 0 0 0 0 0
0 0 0 0 0 0 0 0 0 0 0 0 0 0 0 0 0 0 0 0 0 0 0 0 0 0 0 0 0 0 0 0 0 0 0 0 0 0
0 0 0 0 0 0 0 0 0 0 0 0 0 0 0 0 0 0 0 0 0 0 0 0 0 0 0 0 0 0 0 0 0 0 0 0 0 0
0 0 0 0 0 0 0 0 0 0 0 0 0 0 0 0 0 0 0 0 0 0 0 0 0 0 0 0 0 0 0 0 0 0 0 0 0 0
0 0 0 0 0 0 0 0 0 0 0 0 0 0 0 0 0 0 0 0 0 0 0 0 0 0 0 0 0 0 0 0 0 0 0 0 0 0
0 0 0 0 0 0 0 0 0 0 0 0 0 0 0 0 0 0 0 0 0 0 0 0 0 0 0 0 0 0 0 0 0 0 0 0 0 0
0 0 0 0 0 0 0 0 0 0 0 0 0 0 0 0 0 0 0 0 0 0 0 0 0 0 0 0 0 0 0 0 0 0 0 0 0 0
0 0 0 0 0 0 0 0 0 0 0 0 0 0 0 0 0 0 0 0 0 0 0 0 0 0 0 0 0 0 0 0 0 0 0 0 0 0
0 0 0 0 0 0 0 0 0 0 0 0 0 0 0 0 0 0 0 0 0 0 0 0 0 0 0 0 0 0 0 0 0 0 0 0 0 0
0 0 0 0 0 0 0 0 0 0 0 0 0 0 0 0 0 0 0 0 0 0 0 0 0 0 0 0 0 0 0 0 0 0 0 0 0 0
0 0 0 0 0 0 0 0 0 0 0 0 0 0 0 0 0 0 0 0 0 0 0 0 0 0 0 0 0 0 0 0 0 0 0 0 0 0
0 0 0 0 0 0 0 0 0 0 0 0 0 0 0 0 0 0 0 0 0 0 0 0 0 0 0 0 0 0 0 0 0 0 0 0 0 0
0 0 0 0 0 0 0 0 0 0 0 0 0 0 0 0 0 0 0 0 0 0 0 0 0 0 0 0 0 0 0 0 0 0 0 0 0 0
Wind_Speed
6 6 5 4 4 4 4 4 4 7 8 4 4 4 4 4 9 7 6 14 20 21 22 22 22 23 23 23 23 23 23 23 23 24 24 25 26 26
4 5 6 4 4 4 4 4 5 6 9 4 5 5 5 7 12 8 7 19 20 22 22 22 23 23 23 23 24 24 24 24 24 24 24 25 25 26
5 6 7 6 5 4 4 4 5 5 11 9 5 4 5 7 9 7 7 7 9 20 22 23 23 23 24 24 24 24 24 24 24 24 24 25 25 26
7 7 8 5 6 5 5 6 6 6 8 13 7 5 6 7 7 8 8 8 7 17 22 23 23 23 23 24 24 24 24 24 24 24 24 25 25 25
7 7 8 6 7 6 6 6 6 7 6 9 10 6 5 5 6 7 8 7 9 13 18 20 21 22 23 24 24 24 24 23 23 23 24 24 25 25
7 7 7 7 8 8 7 7 7 7 7 8 9 7 5 5 5 6 7 5 7 9 13 15 19 22 22 23 23 23 23 23 24 24 24 24 24 24
7 7 8 10 13 11 8 7 6 6 6 7 8 7 6 5 5 5 8 7 7 7 7 8 8 7 9 16 20 21 23 23 23 24 24 24 23 24
7 7 8 10 13 18 19 18 14 9 7 7 8 9 9 7 6 7 7 8 7 4 5 6 5 7 7 7 16 22 23 23 23 23 23 23 23 23
7 6 7 8 12 7 13 18 16 19 19 12 10 10 9 8 8 9 8 9 9 5 5 7 5 7 7 10 20 22 21 21 21 22 22 22 22 22
7 7 7 7 8 9 8 8 9 10 13 10 9 10 10 9 9 10 10 9 8 6 5 7 5 6 8 7 16 19 19 20 20 21 21 21 21 20
7 7 7 7 13 17 11 9 9 9 14 19 21 19 21 21 16 7 6 7 8 5 3 4 4 5 6 7 9 16 17 19 20 19 19 19 19 17
5 6 11 12 16 18 10 8 10 9 8 10 12 14 12 13 18 9 5 6 6 5 3 3 3 3 5 4 4 5 8 14 18 18 18 18 17 9
5 4 6 15 17 18 16 8 13 14 8 7 7 7 6 5 6 6 5 5 6 5 4 3 3 3 4 5 4 4 5 6 7 9 13 16 16 12
5 4 6 15 17 18 14 14 20 17 5 5 6 6 5 5 5 5 5 5 6 7 6 5 4 4 5 6 6 4 4 5 5 5 5 11 12 14
6 11 14 17 16 11 13 18 14 6 5 6 6 6 5 5 4 3 4 5 6 6 7 6 6 5 5 6 6 5 5 5 4 4 5 5 5 5
7 10 15 15 11 11 11 8 5 5 6 6 6 5 4 3 3 3 3 3 4 4 5 6 6 6 5 6 6 7 5 5 4 5 5 5 5 4
6 4 3 3 4 4 5 5 4 5 6 5 5 5 5 4 4 3 3 3 3 4 4 4 4 5 6 6 5 6 5 5 5 5 5 5 4 4
9 3 4 4 5 5 5 5 5 5 5 5 5 5 5 4 4 3 3 3 4 4 4 4 3 3 3 4 7 6 5 4 4 5 4 4 5 3
5 4 5 5 5 5 5 5 5 5 5 5 5 5 4 4 4 4 4 3 4 4 4 3 2 2 4 5 5 5 4 4 4 4 3 3 4 4
4 5 5 5 5 5 5 5 6 5 5 5 4 4 4 4 4 4 4 4 4 4 4 3 3 3 4 4 4 5 6 4 3 4 3 3 3 5
5 5 5 5 5 5 5 5 5 5 5 4 4 4 4 4 4 4 4 7 5 4 4 4 5 7 3 2 3 4 4 6 5 3 3 3 3 3
5 6 5 6 5 5 5 5 5 5 5 5 4 4 4 4 5 5 4 4 4 4 5 4 4 3 1 2 4 5 4 4 5 6 5 4 2 2
6 6 6 6 5 5 5 6 6 6 5 5 5 4 4 4 4 4 4 4 4 4 4 4 3 2 3 3 3 4 4 4 3 3 3 5 5 6
Wind_Direction
219 221 226 230 223 224 222 215 241 285 288 258 260 252 249 257 277 281 270 292 300 302 301 300 299 297 296 295 295 295 294 293 292 291 290 290 289 288
220 225 234 235 234 229 228 230 225 248 277 262 251 253 262 276 286 285 272 292 297 299 298 298 297 297 296 296 295 294 293 292 292 291 291 291 290 289
231 231 240 238 239 240 236 237 239 239 271 281 257 257 257 264 277 273 271 272 279 290 294 296 297 297 296 295 295 294 294 293 293 292 292 292 291 290
236 238 246 246 245 245 242 245 248 243 259 282 285 271 258 258 263 266 276 278 269 285 291 294 295 295 296 295 295 294 294 294 293 292 292 291 290 290
234 237 245 244 252 250 247 250 254 259 254 271 284 277 267 264 269 270 270 271 273 282 289 291 292 294 294 294 294 295 295 295 292 290 290 290 289 289
235 236 241 240 248 252 254 253 255 260 261 267 278 281 274 264 261 271 280 262 268 278 280 284 288 291 292 295 296 296 295 293 291 290 290 289 288 288
243 243 245 252 257 262 266 259 253 259 265 271 278 284 281 278 267 265 279 280 265 259 265 271 279 278 283 288 293 292 292 291 290 290 290 290 290 290
246 251 255 263 269 275 280 282 279 276 272 268 276 278 281 273 270 269 278 286 285 245 249 267 265 271 274 271 283 290 291 291 291 293 294 294 293 291
245 253 262 264 275 269 278 283 284 283 282 279 276 275 277 274 272 273 267 268 275 269 267 274 262 269 273 281 289 291 292 293 295 296 296 294 294 293
247 247 252 259 264 274 265 265 262 267 273 274 264 266 268 267 259 266 271 274 268 262 247 269 269 271 281 279 285 288 294 297 298 299 299 299 297 295
253 250 256 257 273 285 284 275 274 271 280 281 280 282 286 290 289 284 279 282 285 273 229 244 269 283 279 270 276 288 297 301 302 302 303 304 301 299
258 255 267 275 282 288 283 275 278 278 275 280 282 285 284 284 289 282 265 273 281 280 241 237 264 290 290 267 266 283 294 299 303 304 305 306 306 303
259 255 258 282 289 291 291 282 284 292 284 280 279 276 274 270 271 264 249 250 264 264 256 245 258 254 260 287 283 271 272 282 294 298 303 306 306 304
265 258 263 284 289 292 295 294 298 304 297 290 283 279 275 270 266 263 256 249 246 254 262 250 253 260 272 282 285 283 282 280 281 287 290 301 305 306
274 281 288 293 297 297 296 299 304 302 290 286 284 280 271 265 265 266 266 264 266 262 261 251 251 259 258 270 280 284 297 292 280 286 294 296 295 298
285 287 295 299 299 297 298 299 289 274 280 275 275 274 270 265 261 259 268 276 279 280 266 257 253 250 258 263 270 280 280 282 294 296 295 292 294 292
284 277 275 283 280 278 279 275 271 280 286 276 272 277 277 274 272 264 263 269 268 280 290 289 273 260 251 253 267 270 275 279 283 294 300 298 293 296
304 289 279 273 274 277 280 281 276 276 275 273 273 272 273 274 276 273 270 264 272 275 277 281 300 311 306 275 238 256 269 275 287 291 290 292 297 303
300 281 276 274 273 273 272 274 276 275 274 273 273 270 269 269 270 273 274 272 273 273 274 272 272 276 292 297 286 247 265 288 293 294 287 278 287 299
271 270 272 271 271 270 270 272 274 274 271 269 267 266 263 264 267 268 268 265 273 277 280 273 260 256 260 273 280 282 280 278 283 292 291 286 280 294
272 270 270 270 270 270 270 270 269 270 271 269 267 261 255 254 261 264 265 275 277 273 278 275 267 286 279 275 285 285 284 290 292 287 291 297 302 313
272 271 271 270 270 269 269 269 270 269 268 264 264 260 254 251 256 260 260 263 263 263 267 275 283 289 262 257 273 282 291 303 306 307 299 284 276 300
272 272 272 272 270 268 266 265 265 267 262 258 257 254 251 253 253 253 253 255 261 266 271 279 283 271 260 256 269 278 287 299 307 315 309 314 303 291